Weather History for CYLW - November, 2012

Change the Weather History Date:

Sunday, November 25, 2012

  Actual Average Record
Temperature  
Mean Temperature 34 °F -  
Max Temperature 45 °F 37 °F 50 °F (1998)
Min Temperature 23 °F 25 °F 14 °F (2010)
Degree Days  
Heating Degree Days 30    
Moisture  
Dew Point 27 °F    
Average Humidity 81    
Maximum Humidity 100    
Minimum Humidity 46    
Precipitation  
Precipitation 0.00 in - - ()
Sea Level Pressure  
Sea Level Pressure 30.32 in    
Wind  
Wind Speed 2 mph ()    
Max Wind Speed 6 mph    
Max Gust Speed -    
Visibility 9.1 miles    
Events      
Averages and records for this station are not official NWS values.
T = Trace of Precipitation, MM = Missing Value Source: Averaged Metar Reports

Daily Weather History Graph

Daily Weather History Graph

Search for Another Location

Airport or City:

Trip Planner

Search our weather history database for the weather conditions in past years. The results will help you decide how hot, cold, wet, or windy it might be!

Date:

Astronomy

Nov. 25, 2012 Rise Set
Actual Time 7:26 AM PST 4:02 PM PST
Civil Twilight 6:49 AM PST 4:39 PM PST
Nautical Twilight 6:09 AM PST 5:19 PM PST
Astronomical Twilight 5:30 AM PST 5:58 PM PST
Moon 2:31 PM PST (11/25) 4:34 AM PST (11/25)
Length of Visible Light 9h 49m
Length of Day
8h 35m
Waxing Gibbous, 93% of the Moon is Illuminated
Nov 25
Waxing Gibbous
Nov 28
Full
Dec 6
Last Quarter
Dec 13
New
Dec 19
First Quarter

Hourly Weather History & Observations

Time (PST) Temp. Windchill Dew Point Humidity Pressure Visibility Wind Dir Wind Speed Gust Speed Precip Events Conditions
12:00 AM 32.0 °F - 32.0 °F 100% 30.20 in 9.0 mi Calm Calm - N/A   Mostly Cloudy
1:00 AM 32.0 °F 28.7 °F 30.2 °F 93% 30.21 in 9.0 mi North 3.5 mph - N/A   Partly Cloudy
2:00 AM 28.4 °F - 26.6 °F 93% 30.22 in 9.0 mi Variable 2.3 mph - N/A   Scattered Clouds
3:00 AM 30.2 °F 26.7 °F 28.4 °F 93% 30.23 in 9.0 mi NE 3.5 mph - N/A   Mostly Cloudy
4:00 AM 30 °F - 29 °F 92% 30.25 in 10 mi North 4.6 mph - -   Overcast
4:00 AM 30.2 °F 25.4 °F 28.4 °F 93% 30.24 in 9.0 mi North 4.6 mph - N/A   Overcast
5:00 AM 30.2 °F 26.7 °F 30.2 °F 100% 30.26 in 9.0 mi ENE 3.5 mph - N/A   Overcast
6:00 AM 30.2 °F - 28.4 °F 93% 30.26 in 9.0 mi Calm Calm - N/A   Overcast
7:00 AM 26.6 °F - 26.6 °F 100% 30.28 in 9.0 mi NE 2.3 mph - N/A   Clear
8:00 AM 28.4 °F 24.6 °F 26.6 °F 93% 30.30 in 9.0 mi NE 3.5 mph - N/A   Scattered Clouds
9:00 AM 32.0 °F - 28.4 °F 87% 30.32 in 9.0 mi ENE 2.3 mph - N/A   Clear
10:00 AM 37 °F - 30 °F 66% 30.34 in 10 mi SSW 2.3 mph - -  
10:00 AM 37.4 °F 34.9 °F 30.2 °F 75% 30.34 in 9.0 mi South 3.5 mph - N/A   Clear
11:00 AM 41.0 °F - 28.4 °F 61% 30.34 in 9.0 mi SSW 2.3 mph - N/A   Clear
12:00 PM 42.8 °F 41.1 °F 26.6 °F 53% 30.32 in 9.0 mi SSW 3.5 mph - N/A   Clear
1:00 PM 42.8 °F 41.1 °F 26.6 °F 53% 30.32 in 9.0 mi Variable 3.5 mph - N/A   Clear
2:00 PM 44.6 °F - 26.6 °F 49% 30.32 in 9.0 mi Variable 2.3 mph - N/A   Clear
3:00 PM 44.6 °F - 24.8 °F 46% 30.32 in 9.0 mi Calm Calm - N/A   Clear
4:00 PM 37 °F - 28 °F 59% 30.33 in 10 mi North 5.8 mph - -  
4:00 PM 37.4 °F 32.8 °F 28.4 °F 70% 30.33 in 9.0 mi North 5.8 mph - N/A   Clear
5:00 PM 32.0 °F - 26.6 °F 80% 30.35 in 9.0 mi Calm Calm - N/A   Clear
6:00 PM 32.0 °F - 26.6 °F 80% 30.37 in 9.0 mi Calm Calm - N/A   Clear
7:00 PM 28.4 °F - 24.8 °F 86% 30.39 in 9.0 mi Variable 2.3 mph - N/A   Clear
8:00 PM 28.4 °F - 24.8 °F 86% 30.40 in 9.0 mi NE 2.3 mph - N/A   Clear
9:00 PM 24.8 °F - 23.0 °F 93% 30.40 in 9.0 mi NNE 2.3 mph - N/A   Clear
10:00 PM 26 °F - 24 °F 87% 30.41 in 10 mi NNE 1.2 mph - -  
10:00 PM 26.6 °F - 23.0 °F 86% 30.41 in 9.0 mi Calm Calm - N/A   Clear
11:00 PM 23.0 °F - 21.2 °F 93% 30.40 in 9.0 mi NE 2.3 mph - N/A   Clear